This is the latest recevied weather packets stored in our database for station/object KN6CRX. If no packets are shown the sender has not sent any weather packets the latest 10 day(s).
| Time | Temp. | Humidity | Pressure | Rain* | Wind** | Luminosity | Snow |
|---|---|---|---|---|---|---|---|
| 1787733241 | 15.56° C | 62% | 1024.6 hPa | 0 mm | - | 0 W/m² | - |
| 1787732937 | 15.56° C | 64% | 1024.7 hPa | 0 mm | - | 0 W/m² | - |
| 1787732636 | 15.56° C | 64% | 1024.6 hPa | 0 mm | - | 0 W/m² | - |
| 1787732333 | 15.56° C | 66% | 1024.7 hPa | 0 mm | - | 0 W/m² | - |
| 1787732030 | 15.56° C | 67% | 1024.7 hPa | 0 mm | - | 0 W/m² | - |
| 1787731730 | 15.56° C | 65% | 1024.9 hPa | 0 mm | - | 0 W/m² | - |
| 1787731428 | 16.11° C | 65% | 1024.7 hPa | 0 mm | - | 0 W/m² | - |
| 1787731124 | 16.11° C | 63% | 1024.7 hPa | 0 mm | - | 0 W/m² | - |
| 1787730824 | 16.11° C | 61% | 1024.7 hPa | 0 mm | - | 0 W/m² | - |
| 1787730519 | 16.67° C | 60% | 1024.8 hPa | 0 mm | - | 0 W/m² | - |
| 1787730213 | 16.67° C | 58% | 1024.9 hPa | 0 mm | - | 0 W/m² | - |
| 1787729912 | 17.22° C | 57% | 1024.8 hPa | 0 mm | - | 0 W/m² | - |
| 1787729607 | 17.22° C | 56% | 1024.6 hPa | 0 mm | - | 0 W/m² | - |
| 1787729302 | 17.22° C | 55% | 1024.7 hPa | 0 mm | - | 0 W/m² | - |
| 1787728997 | 17.22° C | 55% | 1024.7 hPa | 0 mm | - | 0 W/m² | - |
| 1787728692 | 17.22° C | 55% | 1024.6 hPa | 0 mm | - | 0 W/m² | - |
| 1787728389 | 17.22° C | 55% | 1024.6 hPa | 0 mm | - | 0 W/m² | - |
| 1787728084 | 17.22° C | 54% | 1024.6 hPa | 0 mm | - | 0 W/m² | - |
| 1787727784 | 17.78° C | 56% | 1024.5 hPa | 0 mm | - | 0 W/m² | - |
| 1787727482 | 17.22° C | 55% | 1024.8 hPa | 0 mm | - | 0 W/m² | - |
| 1787727177 | 17.22° C | 59% | 1024.7 hPa | 0 mm | - | 0 W/m² | - |
| 1787726876 | 17.22° C | 57% | 1024.7 hPa | 0 mm | - | 0 W/m² | - |
| 1787726573 | 17.78° C | 57% | 1024.8 hPa | 0 mm | - | 0 W/m² | - |
| 1787726269 | 17.78° C | 56% | 1024.8 hPa | 0 mm | - | 0 W/m² | - |
| 1787725964 | 18.33° C | 56% | 1024.7 hPa | 0 mm | - | 0 W/m² | - |
* Rain latest hour (hover to see other rain measurements)
** Current wind speed in m/s (hover to see current wind gust speed)